Branson, MO

12:37 AM CDT on March 25, 2017 (GMT -0500)
Branson

Weather History for KBBG - January, 2013

Change the Weather History Date:

Friday, January 18, 2013

  Actual Average (KHRO) Record (KHRO)
Temperature  
Mean Temperature 42 °F -  
Max Temperature 57 °F 43 °F 71 °F (1953)
Min Temperature 28 °F 26 °F -18 °F (1930)
Degree Days  
Heating Degree Days 22    
Moisture  
Dew Point 22 °F    
Average Humidity 55    
Maximum Humidity 80    
Minimum Humidity 18    
Precipitation  
Precipitation 0.00 in - - ()
Sea Level Pressure  
Sea Level Pressure 30.37 in    
Wind  
Wind Speed 4 mph (South)    
Max Wind Speed 14 mph    
Max Gust Speed 21 mph    
Visibility 10 miles    
Events      
Averages and records for this station are not official NWS values.
T = Trace of Precipitation, MM = Missing Value Source: NWS Daily Summary

Daily Weather History Graph

Daily Weather History Graph

Search for Another Location

Airport or City:

Trip Planner

Search our weather history database for the weather conditions in past years. The results will help you decide how hot, cold, wet, or windy it might be!

Date:

Astronomy

Jan. 18, 2013 Rise Set
Actual Time 7:22 AM CST 5:24 PM CST
Civil Twilight 6:54 AM CST 5:52 PM CST
Nautical Twilight 6:23 AM CST 6:23 PM CST
Astronomical Twilight 5:52 AM CST 6:54 PM CST
Moon 11:15 AM CST (1/18) 12:02 AM CST (1/18)
Length of Visible Light 10h 57m
Length of Day
10h 01m
Waxing Crescent, 47% of the Moon is Illuminated
Jan 18
Waxing Crescent
Jan 18
First Quarter
Jan 26
Full
Feb 3
Last Quarter
Feb 10
New

Hourly Weather History & Observations

Time (CST) Temp. Windchill Dew Point Humidity Pressure Visibility Wind Dir Wind Speed Gust Speed Precip Events Conditions
12:15 AM 28.4 °F - 23.0 °F 80% 30.49 in 10.0 mi Calm Calm - N/A   Clear
12:35 AM 30.2 °F - 23.0 °F 75% 30.49 in 10.0 mi Calm Calm - N/A   Clear
12:55 AM 28.4 °F - 23.0 °F 80% 30.49 in 10.0 mi Calm Calm - N/A   Clear
1:15 AM 28.4 °F - 23.0 °F 80% 30.49 in 10.0 mi Calm Calm - N/A   Clear
1:35 AM 28.4 °F - 23.0 °F 80% 30.50 in 10.0 mi Calm Calm - N/A   Clear
1:55 AM 28.4 °F - 23.0 °F 80% 30.50 in 10.0 mi Calm Calm - N/A   Clear
2:15 AM 28.4 °F - 23.0 °F 80% 30.51 in 10.0 mi Calm Calm - N/A   Clear
2:35 AM 28.4 °F - 23.0 °F 80% 30.51 in 10.0 mi Calm Calm - N/A   Clear
2:55 AM 32.0 °F 28.7 °F 23.0 °F 69% 30.51 in 10.0 mi SSW 3.5 mph - N/A   Clear
3:15 AM 30.2 °F 26.7 °F 23.0 °F 75% 30.50 in 10.0 mi South 3.5 mph - N/A   Clear
3:35 AM 28.4 °F 23.3 °F 23.0 °F 80% 30.49 in 10.0 mi SSE 4.6 mph - N/A   Clear
3:55 AM 32.0 °F 27.5 °F 23.0 °F 69% 30.49 in 10.0 mi South 4.6 mph - N/A   Clear
4:15 AM 32.0 °F 28.7 °F 23.0 °F 69% 30.49 in 10.0 mi South 3.5 mph - N/A   Clear
4:35 AM 30.2 °F 26.7 °F 23.0 °F 75% 30.48 in 10.0 mi South 3.5 mph - N/A   Clear
4:55 AM 30.2 °F 26.7 °F 23.0 °F 75% 30.47 in 10.0 mi South 3.5 mph - N/A   Clear
5:15 AM 32.0 °F 27.5 °F 23.0 °F 69% 30.47 in 10.0 mi South 4.6 mph - N/A   Clear
5:35 AM 32.0 °F 28.7 °F 23.0 °F 69% 30.46 in 10.0 mi South 3.5 mph - N/A   Clear
6:50 AM 32.0 °F 26.4 °F 23.0 °F 69% 30.46 in 10.0 mi SSE 5.8 mph - N/A   Clear
7:45 AM 32.0 °F 25.6 °F 24.8 °F 75% 30.45 in 10.0 mi SSE 6.9 mph - N/A   Clear
8:45 AM 33.8 °F 27.0 °F 24.8 °F 70% 30.45 in 10.0 mi SSE 8.1 mph - N/A   Clear
9:45 AM 39.2 °F 34.2 °F 26.6 °F 61% 30.46 in 10.0 mi SSE 6.9 mph - N/A   Clear
10:45 AM 44.6 °F 41.4 °F 26.6 °F 49% 30.44 in 10.0 mi SSE 5.8 mph - N/A   Clear
11:45 AM 50.0 °F - 23.0 °F 35% 30.41 in 10.0 mi SW 8.1 mph - N/A   Clear
12:45 PM 55.4 °F - 24.8 °F 31% 30.35 in 10.0 mi SW 9.2 mph - N/A   Clear
1:51 PM 57.2 °F - 17.6 °F 21% 30.32 in 10.0 mi SSW 12.7 mph 18.4 mph N/A   Clear
2:53 PM 57.2 °F - 15.8 °F 20% 30.30 in 10.0 mi SSW 13.8 mph 20.7 mph N/A   Clear
3:45 PM 57.2 °F - 14.0 °F 18% 30.28 in 10.0 mi SW 8.1 mph 18.4 mph N/A   Clear
4:45 PM 55.4 °F - 15.8 °F 21% 30.27 in 10.0 mi SSW 9.2 mph 16.1 mph N/A   Clear
5:53 PM 50.0 °F - 17.6 °F 28% 30.27 in 10.0 mi South 8.1 mph - N/A   Clear
6:52 PM 48.2 °F - 19.4 °F 32% 30.26 in 10.0 mi SSW 9.2 mph 13.8 mph N/A   Clear
7:54 PM 44.6 °F 39.7 °F 23.0 °F 43% 30.25 in 10.0 mi South 9.2 mph - N/A   Clear
7:55 PM 44.6 °F 41.4 °F 23.0 °F 43% 30.25 in 10.0 mi SSE 5.8 mph - N/A   Clear
8:15 PM 41.0 °F 36.4 °F 24.8 °F 53% 30.24 in 10.0 mi SSE 6.9 mph - N/A   Clear
8:35 PM 42.8 °F 38.6 °F 24.8 °F 49% 30.23 in 10.0 mi South 6.9 mph - N/A   Clear
8:55 PM 42.8 °F 37.5 °F 24.8 °F 49% 30.23 in 10.0 mi SSE 9.2 mph - N/A   Clear
9:15 PM 42.8 °F 39.3 °F 24.8 °F 49% 30.23 in 10.0 mi South 5.8 mph - N/A   Clear
9:35 PM 42.8 °F 40.1 °F 24.8 °F 49% 30.22 in 10.0 mi South 4.6 mph - N/A   Clear
9:55 PM 44.6 °F 41.4 °F 23.0 °F 43% 30.22 in 10.0 mi South 5.8 mph - N/A   Clear
10:15 PM 44.6 °F 40.7 °F 23.0 °F 43% 30.21 in 10.0 mi SSW 6.9 mph - N/A   Clear
10:35 PM 44.6 °F 40.2 °F 21.2 °F 39% 30.21 in 10.0 mi SSW 8.1 mph - N/A   Clear
10:55 PM 44.6 °F 40.7 °F 21.2 °F 39% 30.21 in 10.0 mi SSW 6.9 mph - N/A   Clear
11:15 PM 44.6 °F 40.2 °F 19.4 °F 37% 30.20 in 10.0 mi SSW 8.1 mph - N/A   Clear
11:35 PM 42.8 °F 39.3 °F 19.4 °F 39% 30.20 in 10.0 mi SSW 5.8 mph - N/A   Clear
11:55 PM 42.8 °F 39.3 °F 19.4 °F 39% 30.20 in 10.0 mi SSW 5.8 mph - N/A   Clear